Location: Newark
(34.9500°N, 139.9667°E)
Time: 09:43:29
(UTC+00:00)

Vanguard 1 Rocket - Pass Details

Date: 16 December 2019
Orbit: 650 x 4226 km, 34.3° (Epoch: 17 January)

Event Time Altitude Azimuth Distance (km) Brightness Sun altitude
Rises 04:44:07 0° 173° (S) 7,997 13.0 24.2°
Reaches altitude 10° 04:57:58 10° 144° (SE) 7,409 12.3 22.7°
Maximum altitude 05:03:44 11° 131° (SE) 7,311 12.1 22.0°
Drops below altitude 10° 05:09:22 10° 118° (ESE) 7,317 12.0 21.3°
Sets 05:22:05 0° 90° (E) 7,758 11.8 19.6°
